Gunnison, CO

4:33 AM MDT on September 27, 2016 (GMT -0600)
Gunnison County

Weather History for KGUC - January, 2014

Change the Weather History Date:

Friday, January 31, 2014

  Actual Average Record
Temperature  
Mean Temperature 27 °F -  
Max Temperature 33 °F 23 °F 48 °F (2003)
Min Temperature 21 °F 0 °F -27 °F (2008)
Degree Days  
Heating Degree Days 38    
Moisture  
Dew Point 23 °F    
Average Humidity 83    
Maximum Humidity 93    
Minimum Humidity 74    
Precipitation  
Precipitation 0.07 in - - ()
Sea Level Pressure  
Sea Level Pressure 29.67 in    
Wind  
Wind Speed 8 mph (SW)    
Max Wind Speed 14 mph    
Max Gust Speed 24 mph    
Visibility 6 miles    
Events      
Averages and records for this station are not official NWS values.
T = Trace of Precipitation, MM = Missing Value Source: NWS Daily Summary

Daily Weather History Graph

Daily Weather History Graph

Search for Another Location

Airport or City:

Trip Planner

Search our weather history database for the weather conditions in past years. The results will help you decide how hot, cold, wet, or windy it might be!

Date:

Astronomy

Jan. 31, 2014 Rise Set
Actual Time 7:14 AM MST 5:28 PM MST
Civil Twilight 6:46 AM MST 5:56 PM MST
Nautical Twilight 6:14 AM MST 6:28 PM MST
Astronomical Twilight 5:43 AM MST 6:59 PM MST
Moon 7:27 AM MST (1/31) 6:54 PM MST (1/31)
Length of Visible Light 11h 10m
Length of Day
10h 14m
New Moon, 1% of the Moon is Illuminated
Jan 31
New Moon
Feb 6
First Quarter
Feb 14
Full
Feb 22
Last Quarter
Mar 1
New

Hourly Weather History & Observations

Time (MST) Temp. Windchill Dew Point Humidity Pressure Visibility Wind Dir Wind Speed Gust Speed Precip Events Conditions
12:15 AM 33.8 °F 25.3 °F 28.4 °F 81% 29.63 in 1.0 mi SW 11.5 mph - 0.01 in   Overcast
12:35 AM 33.8 °F 25.8 °F 28.4 °F 81% 29.62 in 1.5 mi SW 10.4 mph 16.1 mph 0.01 in   Overcast
12:55 AM 32.0 °F 22.5 °F 28.4 °F 87% 29.63 in 5.0 mi WSW 12.7 mph - 0.01 in   Overcast
1:15 AM 32.0 °F 23.6 °F 26.6 °F 80% 29.64 in 9.0 mi SW 10.4 mph 17.3 mph N/A   Mostly Cloudy
1:35 AM 30.2 °F 20.8 °F 26.6 °F 86% 29.66 in 10.0 mi WSW 11.5 mph 18.4 mph N/A   Mostly Cloudy
1:55 AM 30.2 °F 19.8 °F 26.6 °F 86% 29.67 in 6.0 mi SW 13.8 mph - N/A   Overcast
2:15 AM 30.2 °F 22.6 °F 26.6 °F 86% 29.67 in 3.0 mi SW 8.1 mph - N/A   Overcast
2:35 AM 30.2 °F 22.6 °F 26.6 °F 86% 29.67 in 9.0 mi SW 8.1 mph - N/A   Scattered Clouds
2:55 AM 30.2 °F 23.4 °F 24.8 °F 80% 29.68 in 10.0 mi WSW 6.9 mph - N/A   Scattered Clouds
3:15 AM 28.4 °F 19.7 °F 24.8 °F 86% 29.68 in 2.5 mi SW 9.2 mph - N/A   Overcast
3:35 AM 28.4 °F 19.1 °F 24.8 °F 86% 29.68 in 5.0 mi SSW 10.4 mph - N/A   Scattered Clouds
3:55 AM 28.4 °F 21.2 °F 24.8 °F 86% 29.68 in 8.0 mi SSW 6.9 mph - N/A   Mostly Cloudy
4:15 AM 28.4 °F 19.7 °F 24.8 °F 86% 29.69 in 10.0 mi SW 9.2 mph - N/A   Mostly Cloudy
4:35 AM 28.4 °F 20.4 °F 24.8 °F 86% 29.69 in 1.8 mi SSW 8.1 mph - N/A   Overcast
4:55 AM 28.4 °F 20.4 °F 24.8 °F 86% 29.69 in 4.0 mi SSW 8.1 mph - N/A   Overcast
5:15 AM 28.4 °F 21.2 °F 24.8 °F 86% 29.70 in 3.0 mi SSW 6.9 mph - N/A   Mostly Cloudy
5:35 AM 28.4 °F 20.4 °F 24.8 °F 86% 29.70 in 8.0 mi SSW 8.1 mph - N/A   Mostly Cloudy
5:55 AM 28.4 °F 21.2 °F 24.8 °F 86% 29.71 in 8.0 mi SW 6.9 mph - N/A   Overcast
6:15 AM 28.4 °F 22.2 °F 24.8 °F 86% 29.70 in 4.0 mi SSW 5.8 mph - N/A   Overcast
6:55 AM 28.4 °F 20.4 °F 24.8 °F 86% 29.70 in 1.8 mi SSW 8.1 mph - N/A   Overcast
7:15 AM 28.4 °F 23.3 °F 24.8 °F 86% 29.70 in 2.5 mi SW 4.6 mph - N/A   Overcast
7:35 AM 28.4 °F 23.3 °F 24.8 °F 86% 29.71 in 1.5 mi SSW 4.6 mph - N/A   Overcast
7:55 AM 28.4 °F 24.6 °F 24.8 °F 86% 29.71 in 1.2 mi SSW 3.5 mph - N/A   Overcast
8:15 AM 28.4 °F 24.6 °F 24.8 °F 86% 29.70 in 1.5 mi SSW 3.5 mph - N/A   Overcast
8:35 AM 28.4 °F 22.2 °F 24.8 °F 86% 29.69 in 2.0 mi South 5.8 mph - N/A   Mostly Cloudy
8:55 AM 28.4 °F 20.4 °F 24.8 °F 86% 29.70 in 9.0 mi SSW 8.1 mph - N/A   Scattered Clouds
9:15 AM 28.4 °F 22.2 °F 24.8 °F 86% 29.70 in 1.8 mi SW 5.8 mph - N/A   Overcast
9:35 AM 28.4 °F 23.3 °F 24.8 °F 86% 29.70 in 0.8 mi SW 4.6 mph - N/A   Overcast
9:55 AM 28.4 °F 23.3 °F 24.8 °F 86% 29.69 in 0.8 mi SSW 4.6 mph - N/A   Overcast
10:15 AM 28.4 °F - 24.8 °F 86% 29.69 in 2.5 mi Calm Calm - 0.01 in   Overcast
10:35 AM 28.4 °F - 24.8 °F 86% 29.69 in 3.0 mi Calm Calm - 0.01 in   Overcast
10:55 AM 28.4 °F 22.2 °F 24.8 °F 86% 29.68 in 0.8 mi South 5.8 mph - 0.02 in   Overcast
11:15 AM 28.4 °F 21.2 °F 24.8 °F 86% 29.67 in 1.0 mi SSE 6.9 mph - N/A   Overcast
11:35 AM 28.4 °F 24.6 °F 24.8 °F 86% 29.66 in 0.8 mi SE 3.5 mph - N/A   Overcast
11:55 AM 28.4 °F 23.3 °F 24.8 °F 86% 29.65 in 0.8 mi SE 4.6 mph - 0.01 in   Overcast
12:15 PM 28.4 °F 24.6 °F 26.6 °F 93% 29.63 in 1.0 mi ENE 3.5 mph - 0.02 in   Overcast
12:35 PM 30.2 °F - 24.8 °F 80% 29.61 in 0.8 mi Calm Calm - 0.03 in   Overcast
12:55 PM 28.4 °F - 24.8 °F 86% 29.61 in 0.5 mi Calm Calm - 0.03 in   Overcast
1:15 PM 30.2 °F 24.3 °F 24.8 °F 80% 29.60 in 1.0 mi SE 5.8 mph - N/A   Overcast
1:35 PM 30.2 °F - 26.6 °F 86% 29.59 in 6.0 mi Calm Calm - N/A   Mostly Cloudy
1:55 PM 30.2 °F 22.6 °F 24.8 °F 80% 29.60 in 10.0 mi South 8.1 mph - N/A   Mostly Cloudy
2:15 PM 30.2 °F 19.8 °F 24.8 °F 80% 29.62 in 3.0 mi West 13.8 mph 21.9 mph N/A   Mostly Cloudy
2:35 PM 28.4 °F 18.5 °F 24.8 °F 86% 29.62 in 0.5 mi WSW 11.5 mph 24.2 mph N/A   Overcast
2:55 PM 28.4 °F 18.5 °F 23.0 °F 80% 29.63 in 0.5 mi SW 11.5 mph - N/A   Overcast
3:15 PM 28.4 °F 18.5 °F 24.8 °F 86% 29.63 in 0.8 mi SW 11.5 mph - N/A   Overcast
3:55 PM 28.4 °F 22.2 °F 24.8 °F 86% 29.62 in 10.0 mi WSW 5.8 mph - N/A   Scattered Clouds
4:15 PM 28.4 °F 22.2 °F 23.0 °F 80% 29.62 in 1.0 mi SSW 5.8 mph - N/A   Mostly Cloudy
4:35 PM 28.4 °F 19.7 °F 24.8 °F 86% 29.63 in 10.0 mi SW 9.2 mph - N/A   Scattered Clouds
4:55 PM 28.4 °F 18.5 °F 23.0 °F 80% 29.63 in 10.0 mi SW 11.5 mph 16.1 mph N/A   Mostly Cloudy
5:15 PM 28.4 °F 19.7 °F 23.0 °F 80% 29.63 in 10.0 mi SW 9.2 mph - N/A   Mostly Cloudy
5:35 PM 28.4 °F 19.7 °F 23.0 °F 80% 29.64 in 10.0 mi SW 9.2 mph - N/A   Partly Cloudy
5:55 PM 28.4 °F 19.7 °F 23.0 °F 80% 29.64 in 3.0 mi SSW 9.2 mph - N/A   Mostly Cloudy
6:15 PM 26.6 °F 16.8 °F 24.8 °F 93% 29.65 in 10.0 mi WSW 10.4 mph - N/A   Mostly Cloudy
6:35 PM 26.6 °F 15.7 °F 23.0 °F 86% 29.66 in 10.0 mi WSW 12.7 mph - N/A   Overcast
6:55 PM 26.6 °F 16.8 °F 23.0 °F 86% 29.66 in 10.0 mi SW 10.4 mph - N/A   Scattered Clouds
7:15 PM 26.6 °F 18.2 °F 21.2 °F 80% 29.67 in 10.0 mi WSW 8.1 mph - N/A   Clear
7:35 PM 26.6 °F 16.8 °F 21.2 °F 80% 29.68 in 10.0 mi SW 10.4 mph - N/A   Scattered Clouds
7:55 PM 26.6 °F 16.2 °F 19.4 °F 74% 29.68 in 10.0 mi WSW 11.5 mph 17.3 mph N/A   Mostly Cloudy
8:15 PM 26.6 °F 17.5 °F 19.4 °F 74% 29.68 in 10.0 mi WSW 9.2 mph - N/A   Mostly Cloudy
8:35 PM 24.8 °F 17.9 °F 17.6 °F 74% 29.69 in 10.0 mi West 5.8 mph - N/A   Partly Cloudy
8:55 PM 24.8 °F 17.9 °F 17.6 °F 74% 29.69 in 10.0 mi West 5.8 mph - N/A   Partly Cloudy
9:15 PM 21.2 °F 16.4 °F 15.8 °F 80% 29.69 in 10.0 mi SSE 3.5 mph - N/A   Overcast
9:35 PM 21.2 °F 13.6 °F 14.0 °F 74% 29.70 in 10.0 mi SW 5.8 mph - N/A   Mostly Cloudy
9:55 PM 23.0 °F 15.8 °F 15.8 °F 74% 29.70 in 10.0 mi SW 5.8 mph - N/A   Overcast
10:15 PM 23.0 °F 15.8 °F 15.8 °F 74% 29.71 in 10.0 mi WSW 5.8 mph - N/A   Mostly Cloudy
10:35 PM 24.8 °F 16.1 °F 17.6 °F 74% 29.71 in 10.0 mi SW 8.1 mph - N/A   Mostly Cloudy
10:55 PM 23.0 °F 13.9 °F 17.6 °F 80% 29.70 in 10.0 mi SW 8.1 mph - N/A   Partly Cloudy
11:15 PM 21.2 °F 13.6 °F 17.6 °F 86% 29.71 in 10.0 mi West 5.8 mph - N/A   Clear
11:35 PM 21.2 °F - 15.8 °F 80% 29.71 in 10.0 mi Calm Calm - N/A   Clear
11:55 PM 21.2 °F 14.9 °F 15.8 °F 80% 29.71 in 10.0 mi SW 4.6 mph - N/A   Clear